{"data":{"norad_id":69896,"epoch":"2026-09-19T10:42:19.053504Z","epoch_age_seconds":112693,"freshness":"FRESH","line1":"1 69896U 26156AD  26262.44605386  .00000876  00000+0  91607-4 0  9999","line2":"2 69896  97.7446 161.6860 0006036 273.1335  86.9194 14.92152888 11056","mean_motion":14.92152888,"eccentricity":0.0006036,"inclination_deg":97.7446,"raan_deg":161.686,"arg_perigee_deg":273.1335,"mean_anomaly_deg":86.9194,"bstar":9.1607e-5,"rev_number":1105,"period_min":96.504856277167,"perigee_km":587.01726204719,"apogee_km":595.43067460815,"semimajor_km":6969.3609683277,"source":"CELESTRAK","updated_at":"2026-09-20T09:00:25.170104Z"}}